Location: Chantarel
(45.1638°N, 1.7873°E)
Time: 06:54:15
(UTC+00:00)

USA 234 - Pass Details

Date: 03 March 2021
Orbit: 1102 x 1105 km, 123.0° (Epoch: 08 April)

Event Time Altitude Azimuth Distance (km) Brightness Sun altitude
Exits shadow 21:27:17 44° 338° (NNW) 1,488 4.1 -38.4°
Drops below altitude 10° 21:33:22 10° 270° (W) 2,961 6.0 -39.3°
Sets 21:35:58 0° 264° (W) 3,918 6.7 -39.7°
